Location: Lecco
(45.8566°N, 9.3977°E)
Time: 03:01:45
(UTC+02:00)

Courier 1B Rocket - Visible Passes

Search period start: 15 October 2019 00:00
Search period end: 25 October 2019 00:00
Orbit: 920 x 1202 km, 28.2° (Epoch: 14 October)

Date Brightness Start Highest point End Pass type
(mag) Time Alt. Az. Time Alt. Az. Time Alt. Az.
15 Oct 7.3 06:34:50 10° S 06:36:40 11° SSE 06:38:32 10° SE visible
17 Oct 7.1 06:24:39 10° SSW 06:27:31 13° SSE 06:30:26 10° SE visible
18 Oct 7.2 05:25:30 10° S 05:26:55 11° SSE 05:28:21 10° SSE visible
19 Oct 7.0 06:15:07 10° SSW 06:18:25 15° S 06:21:45 10° SE visible
20 Oct 6.9 05:16:44 12° S 05:17:48 13° S 05:20:29 10° SE visible
20 Oct 7.0 07:06:31 10° SW 07:09:57 15° S 07:13:28 10° SSE visible
21 Oct 6.9 06:05:58 10° SSW 06:09:20 15° S 06:12:46 10° SE visible
22 Oct 6.9 05:08:48 14° S 05:08:48 14° S 05:11:54 10° SE visible
22 Oct 7.0 06:57:56 10° SW 07:00:52 14° S 07:03:51 10° SSE visible
23 Oct 6.8 05:58:01 12° SSW 06:00:15 15° S 06:03:32 10° SSE visible
24 Oct 6.9 05:00:51 14° SSE 05:00:51 14° SSE 05:02:59 10° SSE visible
24 Oct 7.0 06:49:54 10° SSW 06:51:46 11° SSW 06:53:39 10° S visible
